Location: Zagreb
(45.8000°N, 16.0000°E)
Time: 08:54:10
(UTC+02:00)

Courier 1B - Pass Details

Date: 13 August 2020
Orbit: 962 x 1209 km, 28.3° (Epoch: 27 September)

Event Time Altitude Azimuth Distance (km) Brightness Sun altitude
Rises 22:02:02 0° 248° (WSW) 3,916 11.0 -17.6°
Reaches altitude 10° 22:06:24 10° 225° (SW) 2,899 10.0 -18.2°
Maximum altitude 22:09:46 14° 196° (SSW) 2,570 9.4 -18.6°
Enters shadow 22:10:48 13° 186° (S) 2,586 9.3 -18.7°
Drops below altitude 10° 22:13:02 10° 167° (SSE) 2,810 - -19.0°
Sets 22:17:09 0° 143° (SE) 3,711 - -19.5°
